STARLINK-30767, 58126

Orbit data source: Space-Track

STARLINK-30767, 58126 is a payload satellite owned by SpaceX/Seattle (US) in LEO that was launched on Sun, 22 Oct 2023 UTC via an FALCON 9 launch vehicle from the Air Force Eastern Test Range (AFETR). Payload-class satellites include a variety of spacecraft equipped with specific instruments for various scientific and technological missions. These include communications satellites like Starlink; space stations such as the ISS; scientific satellites like the Hubble; Earth observation satellites from companies like Planet Labs, Umbra, and HawkEye 360; GPS; miniature CubeSats for education and research; and military/defense satellites.

Loading next visibility...
Identifier
58126, 2023-162J
Orbit
LEO
Country
Flag of USUS
Related business
Manufacturer
SpaceX/Seattle
Mission
Operational Commercial Communications
Bus & Motor
STARLINK V2M, Unknown motor
Mass
730 kg wet, ~700 kg dry
Launch date (UTC)
2023-10-22 (2 years ago)
Launch vehicle
FALCON 9
Launch site
Air Force Eastern Test Range (AFETR)
Object type
Payload
Rocket body
Debris
Shape & HBR
Box + 2 Pan, 17.7 m
Radar Cross Section
33.884 m², Large (>1 m²)

Expand to show TLE details & history
Last TLE update: 22 hours ago

TLE from 22 hours ago
0 STARLINK-30767
1 58126U 23162J   25348.67991307  .00000380  00000-0  43213-4 0  9998
2 58126  43.0026 234.8996 0001084 267.1341  92.9378 15.02530451119518
Epoch: 2025-12-14T16:19Z
TLE epoch observation values (Epoch: 2025-12-14T16:19:04.489Z)
Latitude
0.00004°
Longitude
-93.45842°
Altitude
558.913 km
Speed
7.584 km/s
True Right ascension
15h 39m 35s
True Declination
0° 00' 00"
Sunlit
Object was in daylight at epoch
Visualization orbit readout
Latitude
Unknown
Longitude
Unknown
Altitude
Unknown
Speed
Unknown
Apparent Right ascension
Unknown
Apparent Declination
Unknown
Sunlit
N/A
Visualization observer readout
Local Sidereal Time
13:26:12
Azimuth
Unknown
Elevation
Unknown
Doppler factor
Unknown
Orbital elements
Apogee altitude
561.772 km
Perigee altitude
560.268 km
Semi-major axis
6,939.157 km
Eccentricity
0.00011
Inclination
43.0026°
RAAN
234.8996°
Arg. of periapsis
267.1341°
True anomaly
92.95021°
Mean anomaly
92.9378°
Eccentric anomaly
92.944°
Mean motion
3.75477 °/min
Orbital period
95.88 mins
BSTAR
0.000043213
Loading maneuver chart data...
Computing Atmospheric mass density...
Loading historical data...
Loading historical data...
Loading historical data...
Loading historical data...
Loading historical data...
Loading historical data...
Loading historical data...

Documentation

Showing up to 5 results
|